Juanda, Indonesia

10:32 AM WIB on July 25, 2017 (GMT +0700)
Juanda

Weather History for WARR - November, 2013

Change the Weather History Date:

Wednesday, November 27, 2013

  Actual Average Record
Temperature  
Mean Temperature 81 °F -  
Max Temperature 89 °F - - ()
Min Temperature 73 °F - - ()
Cooling Degree Days 16    
Growing Degree Days 31 (Base 50)    
Moisture  
Dew Point 72 °F    
Average Humidity 72    
Maximum Humidity 94    
Minimum Humidity 55    
Precipitation  
Precipitation 0.00 in - - ()
Sea Level Pressure  
Sea Level Pressure 29.80 in    
Wind  
Wind Speed 5 mph ()    
Max Wind Speed 10 mph    
Max Gust Speed -    
Visibility 5.8 miles    
Events Rain , Thunderstorm    
T = Trace of Precipitation, MM = Missing Value Source: Averaged Metar Reports

Daily Weather History Graph

Daily Weather History Graph

Search for Another Location

Airport or City:

Trip Planner

Search our weather history database for the weather conditions in past years. The results will help you decide how hot, cold, wet, or windy it might be!

Date:

Astronomy

Nov. 27, 2013 Rise Set
Actual Time 5:01 AM WIB 5:31 PM WIB
Civil Twilight 4:38 AM WIB 5:54 PM WIB
Nautical Twilight 4:12 AM WIB 6:20 PM WIB
Astronomical Twilight 3:46 AM WIB 6:46 PM WIB
Moon 12:05 AM WIB (11/27) 12:25 PM WIB (11/27)
Length of Visible Light 13h 15m
Length of Day
12h 30m
Last Quarter, 36% of the Moon is Illuminated
Nov 27
Last Quarter
Dec 3
New
Dec 9
First Quarter
Dec 17
Full
Dec 25
Last Quarter

Hourly Weather History & Observations

Time (WIB) Temp. Heat Index Dew Point Humidity Pressure Visibility Wind Dir Wind Speed Gust Speed Precip Events Conditions
12:00 AM 78.8 °F - 71.6 °F 78% 29.77 in 6.2 mi North 6.9 mph - N/A   Partly Cloudy
12:30 AM 78.8 °F - 71.6 °F 78% 29.74 in 6.2 mi NNE 6.9 mph - N/A   Partly Cloudy
1:00 AM 78.8 °F - 71.6 °F 78% 29.74 in 6.2 mi WNW 3.5 mph - N/A   Partly Cloudy
1:30 AM 77.0 °F - 71.6 °F 83% 29.74 in 6.2 mi West 3.5 mph - N/A   Partly Cloudy
2:00 AM 77.0 °F - 71.6 °F 83% 29.74 in 6.2 mi West 3.5 mph - N/A   Partly Cloudy
4:00 AM 73.4 °F - 71.6 °F 94% 29.74 in 4.3 mi WNW 4.6 mph - N/A   Partly Cloudy
4:30 AM 77.0 °F - 71.6 °F 83% 29.77 in 4.3 mi Calm Calm - N/A   Partly Cloudy
5:00 AM 77.0 °F - 71.6 °F 83% 29.77 in 4.3 mi SSW 3.5 mph - N/A   Partly Cloudy
5:30 AM 77.0 °F - 71.6 °F 83% 29.80 in 4.3 mi SW 2.3 mph - N/A   Partly Cloudy
6:00 AM 77.0 °F - 73.4 °F 89% 29.80 in 4.3 mi SW 3.5 mph - N/A   Partly Cloudy
6:30 AM 78.8 °F - 73.4 °F 83% 29.83 in 5.6 mi Calm Calm - N/A   Partly Cloudy
7:00 AM 82.4 °F 89.5 °F 75.2 °F 79% 29.83 in 5.6 mi Variable 1.2 mph - N/A   Partly Cloudy
7:30 AM 82.4 °F 87.2 °F 71.6 °F 70% 29.83 in 6.2 mi South 4.6 mph - N/A   Partly Cloudy
8:00 AM 84.2 °F 89.6 °F 71.6 °F 66% 29.86 in 6.2 mi South 4.6 mph - N/A   Partly Cloudy
8:30 AM 84.2 °F 89.6 °F 71.6 °F 66% 29.86 in 6.2 mi South 4.6 mph - N/A   Partly Cloudy
9:00 AM 84.2 °F 89.6 °F 71.6 °F 66% 29.86 in 6.2 mi SSE 5.8 mph - N/A   Partly Cloudy
9:30 AM 87.8 °F 93.8 °F 71.6 °F 58% 29.86 in 6.2 mi SSE 6.9 mph - N/A   Partly Cloudy
10:00 AM 89.6 °F 98.2 °F 73.4 °F 59% 29.83 in 6.2 mi SSE 5.8 mph - N/A   Partly Cloudy
10:30 AM 87.8 °F 93.8 °F 71.6 °F 58% 29.83 in 6.2 mi SE 6.9 mph - N/A   Partly Cloudy
11:00 AM 89.6 °F 96.2 °F 71.6 °F 55% 29.83 in 6.2 mi SE 6.9 mph - N/A   Partly Cloudy
11:30 AM 89.6 °F 96.2 °F 71.6 °F 55% 29.80 in 6.2 mi SE 8.1 mph - N/A   Partly Cloudy
12:00 PM 87.8 °F 92.6 °F 69.8 °F 55% 29.80 in 6.2 mi SE 9.2 mph - N/A   Partly Cloudy
12:30 PM 89.6 °F 96.2 °F 71.6 °F 55% 29.77 in 6.2 mi East 9.2 mph - N/A   Partly Cloudy
1:00 PM 87.8 °F 92.6 °F 69.8 °F 55% 29.77 in 6.2 mi ESE 9.2 mph - N/A   Partly Cloudy
1:30 PM 89.6 °F 96.2 °F 71.6 °F 55% 29.74 in 6.2 mi East 9.2 mph - N/A   Partly Cloudy
2:00 PM 87.8 °F 92.6 °F 69.8 °F 55% 29.74 in 6.2 mi ESE 9.2 mph - N/A   Partly Cloudy
2:30 PM 87.8 °F 92.6 °F 69.8 °F 55% 29.74 in 6.2 mi ESE 9.2 mph - N/A   Partly Cloudy
3:00 PM 87.8 °F 92.6 °F 69.8 °F 55% 29.74 in 6.2 mi ESE 10.4 mph - N/A   Partly Cloudy
3:30 PM 86.0 °F 90.4 °F 69.8 °F 58% 29.74 in 6.2 mi SE 10.4 mph - N/A   Partly Cloudy
4:00 PM 82.4 °F 87.2 °F 71.6 °F 70% 29.77 in 6.2 mi SSW 6.9 mph - N/A   Partly Cloudy
4:30 PM 80.6 °F 84.6 °F 71.6 °F 74% 29.77 in 6.2 mi South 8.1 mph - N/A Rain , Thunderstorm Light Thunderstorms and Rain
5:00 PM 78.8 °F - 71.6 °F 78% 29.80 in 6.2 mi SSW 9.2 mph - N/A Rain Light Rain
5:30 PM 80.6 °F 84.6 °F 71.6 °F 74% 29.80 in 6.2 mi South 8.1 mph - N/A   Partly Cloudy
6:00 PM 80.6 °F 84.6 °F 71.6 °F 74% 29.80 in 6.2 mi Calm Calm - N/A   Partly Cloudy
6:30 PM 82.4 °F 88.2 °F 73.4 °F 74% 29.83 in 6.2 mi SSE 4.6 mph - N/A   Partly Cloudy
7:00 PM 82.4 °F 88.2 °F 73.4 °F 74% 29.83 in 6.2 mi SE 5.8 mph - N/A   Partly Cloudy
7:30 PM 80.6 °F 85.4 °F 73.4 °F 79% 29.83 in 6.2 mi ESE 4.6 mph - N/A   Partly Cloudy
8:00 PM 82.4 °F 87.2 °F 71.6 °F 70% 29.83 in - North - - N/A   Partly Cloudy
8:30 PM 82.4 °F 87.2 °F 71.6 °F 70% 29.86 in - North - - N/A   Scattered Clouds
10:00 PM 77.0 °F - 73.4 °F 89% 29.86 in 5.0 mi West 3.5 mph - N/A   Partly Cloudy
10:30 PM 77.0 °F - 73.4 °F 89% 29.86 in 5.0 mi West 3.5 mph - N/A   Scattered Clouds
11:00 PM 77.0 °F - 73.4 °F 89% 29.86 in 4.3 mi WNW 3.5 mph - N/A   Partly Cloudy
11:30 PM 77.0 °F - 73.4 °F 89% 29.83 in 4.3 mi WSW 5.8 mph - N/A   Partly Cloudy